SENTINEL-2A

Last updated on Tue Jul 08 2025 00:02:29 GMT+0000 (Coordinated Universal Time)

1 40697U 15028A 25188.52940736 .00000082 00000+0 47942-4 0 9991 2 40697 98.5690 263.3246 0001212 93.2625 266.8697 14.30815025524446
UTC large
Height (km)
Speed (km/s)
/
Latitude / Longitude
Inclination (degrees)
Orbital Period (minutes)
Azimuth
Elevation
Range (km)
Doppler Factor

Next 0 passes for location: London (51.5072 / 0.1276)

Sorry there are no passes over London.